Zurück zum Katalog

QIANFAN-182

AktivKommunikationPO
NORAD 69399·PAYLOAD·🇨🇳 China

Gestartet Jun 4, 2026 von Taiyuan Satellite Launch Center

Loading…

Nächste Überflüge (nächste 24 Stunden)

TLE

AktuellSource: Space-Track

Epoche: Sep 14, 2026, 20:46 UTC

1 69399U 26124T   26257.86560437  .00000134  00000-0  18838-3 0  9991
2 69399  89.0049 352.5866 0001837 102.7232 257.4125 13.51027564 14138

Verfolge QIANFAN-182 in Echtzeit mit AllMySat

Download on the App Store